weather.gov     
National Weather Service

Regional Weather Roundup
NWS Homepage
This page is being discontinued on March 12, 2014.
The same data is available at this site. Please update your bookmarks.
Thank you, and we apologize for the inconvenience.
Please send an email to SR-SRH.Webmaster@noaa.gov with any concerns.


Current Version
Previous Version:    01  02  03  04  05  06  07  08  09  10  11  12  13  14  15  16  17  18  19  20  21  22  23  24  25  26  27  28  29  30  
   31  32  33  34  35  36  37  38  39  40  41  42  43  44  45  46  47  48  49  50  51  52  53  54  55  56  57  58  59  60  
[Printable]
710
ASUS43 KDTX 182310
RWRMI
MICHIGAN HOURLY REGIONAL WEATHER ROUNDUP
NATIONAL WEATHER SERVICE DETROIT/PONTIAC MI
700 PM EDT FRI APR 18 2014

NOTE: "FAIR" INDICATES FEW OR NO CLOUDS BELOW 12,000 FEET WITH NO
SIGNIFICANT WEATHER AND/OR OBSTRUCTION TO VISIBILITY.

MIZ047>049-052>055-059>063-066>070-074>076-081>083-190000-
SOUTHEAST LOWER MICHIGAN

CITY           SKY/WX    TMP DP  RH WIND       PRES   REMARKS
ADRIAN         SUNNY     63  32  31 NW9       30.22F
ALMA           SUNNY     56  28  34 NW10      30.27R
ANN ARBOR      SUNNY     62  33  33 NW8       30.22F
BAD AXE        SUNNY     42  32  68 NE8       30.30R
DETROIT CITY   SUNNY     53  38  56 E10       30.25S
DETROIT        MOSUNNY   57  42  57 E7        30.24S
FLINT          MOSUNNY   59  37  44 NW15      30.24S
GROSSE ILE     SUNNY     54  43  66 NE9       30.23S
HILLSDALE      SUNNY     62  31  31 W14       30.23S
HOWELL         SUNNY     58  33  38 NW9       30.23S

CITY           SKY/WX    TMP DP  RH WIND       PRES   REMARKS
JACKSON        MOSUNNY   61  34  36 NW9       30.23S
LAMBERTVILLE   SUNNY     57  41  54 E7        30.23S
LANSING        MOSUNNY   59  33  37 W13       30.26S
LAPEER         NOT AVBL
MASON          MOSUNNY   59  34  40 W12       30.25R
MONROE         SUNNY     55  45  67 E9        30.22S
MT. CLEMENS    MOSUNNY   48  39  70 E9        30.23S
PONTIAC        MOSUNNY   57  35  43 NW5       30.23S
PORT HOPE        N/A     36  31  82 NE13      30.31S
PORT HURON     SUNNY     43  32  65 NE12      30.29R
TRI CITIES     MOSUNNY   52  39  61 NE12      30.27S
YPSILANTI      MOSUNNY   61  43  51 SE9       30.23S
$$
MIZ043>046-050>051-056>058-064>065-071>073-077>080-190000-
SOUTHWEST LOWER MICHIGAN

CITY           SKY/WX    TMP DP  RH WIND       PRES   REMARKS
BATTLE CREEK   SUNNY     57  34  41 NW14      30.28R
BENTON HARBOR  SUNNY     40  29  64 N7        30.34S
BIG RAPIDS     SUNNY     50  22  32 N10       30.29S
COLDWATER      SUNNY     58  30  33 NW9       30.25S
HOLLAND        SUNNY     43  29  57 NW12      30.34S
GRAND RAPIDS   MOSUNNY   56  32  40 NW12      30.29S
KALAMAZOO      SUNNY     55  33  43 NW14      30.29R
MARSHALL       SUNNY     58  32  37 NW12G18   30.25R
MUSKEGON       MOSUNNY   46  29  51 W8        30.33R
$$
MIZ016>042-190000-
NORTHERN LOWER MICHIGAN

CITY           SKY/WX    TMP DP  RH WIND       PRES   REMARKS
ALPENA         CLOUDY    40  25  55 NW14G20   30.34R
BEAVER ISLAND  CLOUDY    37  29  74 NW7       30.39S
BELLAIRE       CLOUDY    40  26  56 N6        30.38R
CADILLAC       SUNNY     39  25  57 N12       30.33R
CHARLEVOIX     CLOUDY    37  29  74 NW6       30.42S
FRANKFORT      CLEAR     40  25  55 NE7       30.38S
GAYLORD        CLOUDY    35  24  64 N7        30.34S
GRAYLING       SUNNY     38  24  55 NW12      30.35R
HARBOR SPRINGS CLOUDY    38  27  64 NW6       30.37S
HOUGHTON LAKE  SUNNY     42  24  49 NW10      30.33R
MANISTEE       SUNNY     39  25  56 NW10      30.38S
OSCODA         PTSUNNY   38  31  73 NE8       30.31S
PELLSTON       CLOUDY    37  27  67 NW10      30.38R
TRAVERSE CITY  MOSUNNY   40  26  57 NE9       30.37S
$$
MIZ007>008-015-190000-
EASTERN UPPER MICHIGAN

CITY           SKY/WX    TMP DP  RH WIND       PRES   REMARKS
KINROSS        CLOUDY    36  32  87 NW14      30.35S
MACKINAC ISLAN CLOUDY    37  29  73 NW5       30.35F
NEWBERRY       PTSUNNY   34  28  76 NW10G17   30.37R
S. S. MARIE    CLOUDY    34  30  85 W8        30.35S
$$
MIZ004>006-011>014-085-190000-
CENTRAL UPPER MICHIGAN

CITY           SKY/WX    TMP DP  RH WIND       PRES   REMARKS
MANISTIQUE     PTSUNNY   37  29  72 N9G16     30.39S
ESCANABA       MOSUNNY   43  23  45 N7        30.39R
MENOMINEE      MOSUNNY   43  23  45 E7        30.38R
SAWYER-GWINN   SUNNY     34  28  80 NE9       30.38R
$$
MIZ001>003-009>011-084-190000-
WESTERN UPPER MICHIGAN

CITY           SKY/WX    TMP DP  RH WIND       PRES   REMARKS
IRON MOUNTAIN  MOSUNNY   40  23  50 NE5       30.37R
HOUGHTON       SUNNY     35  22  58 NW8       30.39R
COPPER HARBOR    N/A     34  27  75 N9        30.41S
IRONWOOD       SUNNY     39  19  45 NE6       30.33F
$$

ABBREVIATIONS USED IN REMARKS
   TC - TEMPERATURE IN CELSIUS
  WCI - WIND CHILL INDEX
   HX - HEAT INDEX
  VSB - VISIBILITY





U.S. Dept. of Commerce
NOAA National Weather Service
1325 East West Highway
Silver Spring, MD 20910
E-mail: w-nws.webmaster@noaa.gov
Page last modified: May 16, 2007
NATIONAL WEATHER SERVICE: for Safety, for Work, for Fun - FOR LIFE